Time,TemperatureF,DewpointF,PressureIn,WindDirection,WindDirectionDegrees,WindSpeedMPH,WindSpeedGustMPH,Humidity,HourlyPrecipIn,Conditions,Clouds,dailyrainin,SolarRadiationWatts/m^2,SoftwareType,DateUTC
2017-05-23 00:03:00,45.8,43.9,29.85,West,276,0.0,2.0,93,0.00,,---,0.02,0.00,VWS V15.00,2017-05-23 05:03:00,
2017-05-23 00:08:00,45.7,43.8,29.85,West,276,0.0,2.0,93,0.00,,---,0.00,0.00,VWS V15.00,2017-05-23 05:08:00,
2017-05-23 00:13:00,45.5,43.6,29.85,West,276,0.0,2.0,93,0.00,,---,0.00,0.00,VWS V15.00,2017-05-23 05:13:00,
2017-05-23 00:18:00,45.3,43.4,29.85,West,276,0.0,2.0,93,0.00,,---,0.00,0.00,VWS V15.00,2017-05-23 05:18:00,
2017-05-23 00:23:00,45.1,43.2,29.85,West,276,0.0,2.0,93,0.00,,---,0.00,0.00,VWS V15.00,2017-05-23 05:23:00,
2017-05-23 00:28:00,45.0,43.1,29.85,West,276,0.0,2.0,93,0.00,,---,0.00,0.00,VWS V15.00,2017-05-23 05:28:00,
2017-05-23 00:33:00,44.9,43.0,29.85,West,276,0.0,2.0,93,0.00,,---,0.00,0.00,VWS V15.00,2017-05-23 05:33:00,
2017-05-23 00:38:00,44.7,42.8,29.85,West,276,0.0,0.0,93,0.00,,---,0.00,0.00,VWS V15.00,2017-05-23 05:38:00,
2017-05-23 00:43:00,44.5,42.6,29.85,West,276,0.0,0.0,93,0.00,,---,0.00,0.00,VWS V15.00,2017-05-23 05:43:00,
2017-05-23 00:48:00,44.3,42.4,29.85,West,276,0.0,0.0,93,0.00,,---,0.00,0.00,VWS V15.00,2017-05-23 05:48:00,
2017-05-23 00:53:00,44.1,42.2,29.85,West,276,0.0,0.0,93,0.00,,---,0.00,0.00,VWS V15.00,2017-05-23 05:53:00,
2017-05-23 00:58:00,44.0,42.1,29.85,West,276,1.0,1.0,93,0.00,,---,0.00,0.00,VWS V15.00,2017-05-23 05:58:00,
2017-05-23 01:03:00,43.9,42.0,29.85,West,276,0.0,3.0,93,0.00,,---,0.00,0.00,VWS V15.00,2017-05-23 06:03:00,
2017-05-23 01:08:00,43.8,41.9,29.85,West,276,1.0,1.0,93,0.00,,---,0.00,0.00,VWS V15.00,2017-05-23 06:08:00,
2017-05-23 01:13:00,43.7,42.1,29.85,West,276,0.0,2.0,94,0.00,,---,0.00,0.00,VWS V15.00,2017-05-23 06:13:00,
2017-05-23 01:18:00,43.7,42.1,29.85,West,276,0.0,2.0,94,0.00,,---,0.00,0.00,VWS V15.00,2017-05-23 06:18:00,
2017-05-23 01:23:00,43.7,42.1,29.85,West,276,2.0,3.0,94,0.00,,---,0.00,0.00,VWS V15.00,2017-05-23 06:23:00,
2017-05-23 01:28:00,43.7,42.1,29.85,West,276,0.0,3.0,94,0.00,,---,0.00,0.00,VWS V15.00,2017-05-23 06:28:00,
2017-05-23 01:33:00,43.8,42.2,29.85,West,276,0.0,3.0,94,0.00,,---,0.00,0.00,VWS V15.00,2017-05-23 06:33:00,
2017-05-23 01:38:00,43.7,42.4,29.85,West,276,0.0,0.0,95,0.00,,---,0.00,0.00,VWS V15.00,2017-05-23 06:38:00,
2017-05-23 01:43:00,43.7,42.1,29.85,West,276,0.0,0.0,94,0.00,,---,0.00,0.00,VWS V15.00,2017-05-23 06:43:00,
2017-05-23 01:48:00,43.7,42.4,29.85,West,276,0.0,0.0,95,0.00,,---,0.00,0.00,VWS V15.00,2017-05-23 06:48:00,
2017-05-23 01:53:00,43.7,42.4,29.85,West,276,0.0,0.0,95,0.00,,---,0.00,0.00,VWS V15.00,2017-05-23 06:53:00,
2017-05-23 01:58:00,43.7,42.4,29.85,West,276,0.0,0.0,95,0.00,,---,0.00,0.00,VWS V15.00,2017-05-23 06:58:00,
2017-05-23 02:03:00,43.7,42.4,29.85,West,276,0.0,0.0,95,0.00,,---,0.00,0.00,VWS V15.00,2017-05-23 07:03:00,
2017-05-23 02:08:00,43.7,42.4,29.85,West,276,0.0,0.0,95,0.00,,---,0.00,0.00,VWS V15.00,2017-05-23 07:08:00,
2017-05-23 02:13:00,43.6,42.3,29.85,West,276,0.0,0.0,95,0.00,,---,0.00,0.00,VWS V15.00,2017-05-23 07:13:00,
2017-05-23 02:18:00,43.7,42.4,29.85,West,276,0.0,0.0,95,0.00,,---,0.00,0.00,VWS V15.00,2017-05-23 07:18:00,
2017-05-23 02:23:00,43.6,42.3,29.85,West,276,0.0,0.0,95,0.00,,---,0.00,0.00,VWS V15.00,2017-05-23 07:23:00,
2017-05-23 02:28:00,43.6,42.5,29.85,West,276,0.0,0.0,96,0.00,,---,0.00,0.00,VWS V15.00,2017-05-23 07:28:00,
2017-05-23 02:33:00,43.7,42.6,29.84,West,276,0.0,0.0,96,0.00,,---,0.00,0.00,VWS V15.00,2017-05-23 07:33:00,
2017-05-23 02:38:00,43.7,42.6,29.84,West,276,0.0,0.0,96,0.00,,---,0.00,0.00,VWS V15.00,2017-05-23 07:38:00,
2017-05-23 02:43:00,43.7,42.6,29.84,West,276,0.0,0.0,96,0.00,,---,0.00,0.00,VWS V15.00,2017-05-23 07:43:00,
2017-05-23 02:48:00,43.7,42.6,29.84,West,276,0.0,0.0,96,0.00,,---,0.00,0.00,VWS V15.00,2017-05-23 07:48:00,
2017-05-23 02:53:00,43.7,42.6,29.84,West,276,0.0,0.0,96,0.00,,---,0.00,0.00,VWS V15.00,2017-05-23 07:53:00,
2017-05-23 02:58:00,43.7,42.6,29.84,West,276,0.0,0.0,96,0.00,,---,0.00,0.00,VWS V15.00,2017-05-23 07:58:00,
2017-05-23 03:03:00,43.7,42.6,29.84,West,276,0.0,0.0,96,0.00,,---,0.00,0.00,VWS V15.00,2017-05-23 08:03:00,
2017-05-23 03:08:00,43.7,42.6,29.84,West,276,0.0,0.0,96,0.00,,---,0.00,0.00,VWS V15.00,2017-05-23 08:08:00,
2017-05-23 03:13:00,43.7,42.6,29.84,West,276,0.0,0.0,96,0.00,,---,0.00,0.00,VWS V15.00,2017-05-23 08:13:00,
2017-05-23 03:18:00,43.7,42.6,29.84,West,276,0.0,0.0,96,0.00,,---,0.00,0.00,VWS V15.00,2017-05-23 08:18:00,
2017-05-23 03:23:00,43.7,42.6,29.84,West,276,0.0,0.0,96,0.00,,---,0.00,0.00,VWS V15.00,2017-05-23 08:23:00,
2017-05-23 03:28:00,43.7,42.6,29.84,West,276,0.0,0.0,96,0.00,,---,0.00,0.00,VWS V15.00,2017-05-23 08:28:00,
2017-05-23 03:33:00,43.7,42.6,29.84,West,276,0.0,0.0,96,0.00,,---,0.00,0.00,VWS V15.00,2017-05-23 08:33:00,
2017-05-23 03:35:00,43.7,42.6,29.84,West,276,0.0,0.0,96,0.00,,---,0.00,0.00,VWS V15.00,2017-05-23 08:35:00,
2017-05-23 03:40:00,43.7,42.6,29.84,West,276,0.0,0.0,96,0.00,,---,0.00,0.00,VWS V15.00,2017-05-23 08:40:00,
2017-05-23 03:45:00,43.7,42.6,29.84,West,276,0.0,0.0,96,0.00,,---,0.00,0.00,VWS V15.00,2017-05-23 08:45:00,
2017-05-23 03:50:00,43.7,42.6,29.84,West,276,0.0,0.0,96,0.00,,---,0.00,0.00,VWS V15.00,2017-05-23 08:50:00,
2017-05-23 03:55:00,43.7,42.6,29.84,West,276,0.0,0.0,96,0.00,,---,0.00,0.00,VWS V15.00,2017-05-23 08:55:00,
2017-05-23 04:00:00,43.7,42.6,29.84,West,276,0.0,0.0,96,0.00,,---,0.00,0.00,VWS V15.00,2017-05-23 09:00:00,
2017-05-23 04:05:00,43.7,42.6,29.84,West,276,0.0,0.0,96,0.00,,---,0.00,0.00,VWS V15.00,2017-05-23 09:05:00,
2017-05-23 04:10:00,43.6,42.5,29.84,West,276,0.0,0.0,96,0.00,,---,0.00,0.00,VWS V15.00,2017-05-23 09:10:00,
2017-05-23 04:15:00,43.6,42.5,29.84,West,276,0.0,0.0,96,0.00,,---,0.00,0.00,VWS V15.00,2017-05-23 09:15:00,
2017-05-23 04:20:00,43.6,42.5,29.84,West,276,0.0,0.0,96,0.00,,---,0.00,0.00,VWS V15.00,2017-05-23 09:20:00,
2017-05-23 04:25:00,43.5,42.4,29.84,West,276,0.0,0.0,96,0.00,,---,0.00,0.00,VWS V15.00,2017-05-23 09:25:00,
2017-05-23 04:30:00,43.4,42.3,29.84,West,276,0.0,0.0,96,0.00,,---,0.00,0.00,VWS V15.00,2017-05-23 09:30:00,
2017-05-23 04:35:00,43.3,42.2,29.84,West,276,1.0,1.0,96,0.00,,---,0.00,0.00,VWS V15.00,2017-05-23 09:35:00,
2017-05-23 04:40:00,43.3,42.2,29.84,West,276,0.0,2.0,96,0.00,,---,0.00,0.00,VWS V15.00,2017-05-23 09:40:00,
2017-05-23 04:45:00,43.2,42.1,29.84,West,276,0.0,2.0,96,0.00,,---,0.00,0.00,VWS V15.00,2017-05-23 09:45:00,
2017-05-23 04:50:00,43.1,42.0,29.84,West,276,0.0,2.0,96,0.00,,---,0.00,0.00,VWS V15.00,2017-05-23 09:50:00,
2017-05-23 04:55:00,42.9,41.8,29.84,West,276,0.0,2.0,96,0.00,,---,0.00,0.00,VWS V15.00,2017-05-23 09:55:00,
2017-05-23 05:00:00,42.9,41.8,29.84,West,276,0.0,2.0,96,0.00,,---,0.00,0.00,VWS V15.00,2017-05-23 10:00:00,
2017-05-23 05:05:00,42.8,41.7,29.84,West,276,0.0,0.0,96,0.00,,---,0.00,0.00,VWS V15.00,2017-05-23 10:05:00,
2017-05-23 05:10:00,42.7,41.6,29.84,West,276,0.0,0.0,96,0.00,,---,0.00,0.00,VWS V15.00,2017-05-23 10:10:00,
2017-05-23 05:15:00,42.5,41.4,29.84,West,276,0.0,0.0,96,0.00,,---,0.00,0.00,VWS V15.00,2017-05-23 10:15:00,
2017-05-23 05:20:00,42.4,41.3,29.84,West,276,0.0,0.0,96,0.00,,---,0.00,0.00,VWS V15.00,2017-05-23 10:20:00,
2017-05-23 05:25:00,42.4,41.3,29.84,West,276,0.0,0.0,96,0.00,,---,0.00,0.00,VWS V15.00,2017-05-23 10:25:00,
2017-05-23 05:30:00,42.3,41.2,29.84,West,276,0.0,0.0,96,0.00,,---,0.00,7.00,VWS V15.00,2017-05-23 10:30:00,
2017-05-23 05:35:00,42.2,41.1,29.84,West,276,0.0,0.0,96,0.00,,---,0.00,7.00,VWS V15.00,2017-05-23 10:35:00,
2017-05-23 05:40:00,42.1,41.0,29.84,West,276,0.0,0.0,96,0.00,,---,0.00,7.00,VWS V15.00,2017-05-23 10:40:00,
2017-05-23 05:45:00,42.0,40.9,29.84,West,276,0.0,0.0,96,0.00,,---,0.00,11.00,VWS V15.00,2017-05-23 10:45:00,
2017-05-23 05:50:00,42.0,40.9,29.84,West,276,0.0,0.0,96,0.00,,---,0.00,11.00,VWS V15.00,2017-05-23 10:50:00,
2017-05-23 05:55:00,41.9,40.8,29.84,West,276,0.0,0.0,96,0.00,,---,0.00,12.00,VWS V15.00,2017-05-23 10:55:00,
2017-05-23 06:00:00,41.8,40.8,29.84,West,276,0.0,0.0,96,0.00,,---,0.00,14.00,VWS V15.00,2017-05-23 11:00:00,
2017-05-23 06:05:00,41.8,40.8,29.85,West,276,0.0,0.0,96,0.00,,---,0.00,16.00,VWS V15.00,2017-05-23 11:05:00,
2017-05-23 06:10:00,41.7,40.7,29.85,West,276,0.0,0.0,96,0.00,,---,0.00,16.00,VWS V15.00,2017-05-23 11:10:00,
2017-05-23 06:15:00,41.7,40.7,29.85,West,276,0.0,0.0,96,0.00,,---,0.00,16.00,VWS V15.00,2017-05-23 11:15:00,
2017-05-23 06:20:00,41.7,40.7,29.85,West,276,0.0,0.0,96,0.00,,---,0.00,18.00,VWS V15.00,2017-05-23 11:20:00,
2017-05-23 06:25:00,41.7,40.7,29.85,West,276,0.0,0.0,96,0.00,,---,0.00,18.00,VWS V15.00,2017-05-23 11:25:00,
2017-05-23 06:30:00,41.7,40.9,29.85,West,276,0.0,1.0,97,0.00,,---,0.00,18.00,VWS V15.00,2017-05-23 11:30:00,
2017-05-23 06:35:00,41.8,41.0,29.86,West,276,0.0,0.0,97,0.00,,---,0.00,18.00,VWS V15.00,2017-05-23 11:35:00,
2017-05-23 06:40:00,41.8,41.0,29.86,West,276,0.0,0.0,97,0.00,,---,0.00,18.00,VWS V15.00,2017-05-23 11:40:00,
2017-05-23 06:44:00,41.9,41.1,29.86,West,276,0.0,0.0,97,0.00,,---,0.00,16.00,VWS V15.00,2017-05-23 11:44:00,
2017-05-23 06:49:00,41.9,41.1,29.87,West,276,0.0,0.0,97,0.00,,---,0.00,18.00,VWS V15.00,2017-05-23 11:49:00,
2017-05-23 06:54:00,41.9,41.1,29.87,West,276,0.0,0.0,97,0.00,,---,0.00,21.00,VWS V15.00,2017-05-23 11:54:00,
2017-05-23 06:59:00,42.0,41.2,29.87,West,276,0.0,0.0,97,0.00,,---,0.00,25.00,VWS V15.00,2017-05-23 11:59:00,
2017-05-23 07:04:00,42.1,41.3,29.87,West,276,0.0,0.0,97,0.00,,---,0.00,30.00,VWS V15.00,2017-05-23 12:04:00,
2017-05-23 07:09:00,42.2,41.4,29.87,West,276,0.0,0.0,97,0.00,,---,0.00,37.00,VWS V15.00,2017-05-23 12:09:00,
2017-05-23 07:14:00,42.4,41.6,29.87,West,276,0.0,0.0,97,0.00,,---,0.00,49.00,VWS V15.00,2017-05-23 12:14:00,
2017-05-23 07:19:00,42.4,41.6,29.87,West,276,0.0,0.0,97,0.00,,---,0.00,65.00,VWS V15.00,2017-05-23 12:19:00,
2017-05-23 07:24:00,43.0,42.2,29.87,West,276,0.0,0.0,97,0.00,,---,0.00,69.00,VWS V15.00,2017-05-23 12:24:00,
2017-05-23 07:29:00,43.2,42.4,29.87,West,276,0.0,0.0,97,0.00,,---,0.00,63.00,VWS V15.00,2017-05-23 12:29:00,
2017-05-23 07:34:00,43.5,42.7,29.87,West,276,0.0,0.0,97,0.00,,---,0.00,65.00,VWS V15.00,2017-05-23 12:34:00,
2017-05-23 07:39:00,43.7,42.9,29.87,West,276,1.0,1.0,97,0.00,,---,0.00,84.00,VWS V15.00,2017-05-23 12:39:00,
2017-05-23 07:44:00,44.0,43.2,29.87,West,276,0.0,3.0,97,0.00,,---,0.00,97.00,VWS V15.00,2017-05-23 12:44:00,
2017-05-23 07:49:00,44.3,43.5,29.88,West,276,0.0,3.0,97,0.00,,---,0.00,107.00,VWS V15.00,2017-05-23 12:49:00,
2017-05-23 07:54:00,44.7,43.9,29.88,West,276,0.0,3.0,97,0.00,,---,0.00,120.00,VWS V15.00,2017-05-23 12:54:00,
2017-05-23 07:59:00,45.3,44.5,29.88,West,276,0.0,3.0,97,0.00,,---,0.00,144.00,VWS V15.00,2017-05-23 12:59:00,
2017-05-23 08:04:00,45.8,45.0,29.88,West,276,0.0,0.0,97,0.00,,---,0.00,116.00,VWS V15.00,2017-05-23 13:04:00,
2017-05-23 08:09:00,46.1,45.0,29.88,West,276,0.0,1.0,96,0.00,,---,0.00,128.00,VWS V15.00,2017-05-23 13:09:00,
2017-05-23 08:14:00,46.3,45.0,29.88,West,276,0.0,1.0,95,0.00,,---,0.00,135.00,VWS V15.00,2017-05-23 13:14:00,
2017-05-23 08:19:00,46.9,45.5,29.88,West,276,0.0,1.0,95,0.00,,---,0.00,200.00,VWS V15.00,2017-05-23 13:19:00,
2017-05-23 08:24:00,47.6,46.2,29.88,West,276,0.0,1.0,95,0.00,,---,0.00,316.00,VWS V15.00,2017-05-23 13:24:00,
2017-05-23 08:29:00,49.0,47.1,29.88,West,276,1.0,2.0,93,0.00,,---,0.00,397.00,VWS V15.00,2017-05-23 13:29:00,
2017-05-23 08:34:00,49.4,46.6,29.88,West,276,1.0,3.0,90,0.00,,---,0.00,192.00,VWS V15.00,2017-05-23 13:34:00,
2017-05-23 08:39:00,49.4,46.3,29.88,West,276,2.0,3.0,89,0.00,,---,0.00,156.00,VWS V15.00,2017-05-23 13:39:00,
2017-05-23 08:44:00,49.4,46.3,29.88,West,276,2.0,3.0,89,0.00,,---,0.00,153.00,VWS V15.00,2017-05-23 13:44:00,
2017-05-23 08:49:00,49.6,46.2,29.88,West,276,0.0,3.0,88,0.00,,---,0.00,137.00,VWS V15.00,2017-05-23 13:49:00,
2017-05-23 08:54:00,49.6,45.6,29.88,West,276,0.0,4.0,86,0.00,,---,0.00,125.00,VWS V15.00,2017-05-23 13:54:00,
2017-05-23 08:59:00,49.6,45.6,29.88,West,275,1.0,4.0,86,0.00,,---,0.00,139.00,VWS V15.00,2017-05-23 13:59:00,
2017-05-23 09:04:00,49.7,45.7,29.88,West,276,0.0,0.0,86,0.00,,---,0.00,155.00,VWS V15.00,2017-05-23 14:04:00,
2017-05-23 09:09:00,49.9,45.9,29.88,West,276,0.0,2.0,86,0.00,,---,0.00,172.00,VWS V15.00,2017-05-23 14:09:00,
2017-05-23 09:14:00,49.9,45.9,29.88,West,276,0.0,2.0,86,0.00,,---,0.00,188.00,VWS V15.00,2017-05-23 14:14:00,
2017-05-23 09:15:00,50.0,46.0,29.88,West,276,0.0,2.0,86,0.00,,---,0.00,186.00,VWS V15.00,2017-05-23 14:15:00,
2017-05-23 09:20:00,50.3,46.0,29.88,WSW,252,2.0,5.0,85,0.00,,---,0.00,153.00,VWS V15.00,2017-05-23 14:20:00,
2017-05-23 09:25:00,50.4,45.8,29.88,WSW,240,1.0,5.0,84,0.00,,---,0.00,142.00,VWS V15.00,2017-05-23 14:25:00,
2017-05-23 09:30:00,50.3,45.3,29.88,South,170,3.0,5.0,83,0.00,,---,0.00,139.00,VWS V15.00,2017-05-23 14:30:00,
2017-05-23 09:35:00,50.3,45.3,29.89,South,169,3.0,3.0,83,0.00,,---,0.00,135.00,VWS V15.00,2017-05-23 14:35:00,
2017-05-23 09:40:00,50.3,45.7,29.89,South,169,0.0,3.0,84,0.00,,---,0.00,144.00,VWS V15.00,2017-05-23 14:40:00,
2017-05-23 09:45:00,50.5,46.2,29.89,South,169,0.0,3.0,85,0.00,,---,0.00,172.00,VWS V15.00,2017-05-23 14:45:00,
2017-05-23 09:50:00,50.7,45.7,29.89,SSE,162,3.0,5.0,83,0.00,,---,0.00,178.00,VWS V15.00,2017-05-23 14:50:00,
2017-05-23 09:55:00,50.8,45.5,29.89,SSE,161,1.0,5.0,82,0.00,,---,0.00,165.00,VWS V15.00,2017-05-23 14:55:00,
2017-05-23 09:56:00,50.8,45.8,29.89,SSE,161,1.0,5.0,83,0.00,,---,0.00,163.00,VWS V15.00,2017-05-23 14:56:00,
2017-05-23 10:01:00,51.0,46.0,29.89,SSE,161,2.0,5.0,83,0.00,,---,0.00,158.00,VWS V15.00,2017-05-23 15:01:00,
2017-05-23 10:06:00,51.0,45.7,29.89,SSE,161,2.0,2.0,82,0.00,,---,0.00,144.00,VWS V15.00,2017-05-23 15:06:00,
2017-05-23 10:11:00,51.1,46.4,29.89,SSE,161,0.0,2.0,84,0.00,,---,0.00,137.00,VWS V15.00,2017-05-23 15:11:00,
2017-05-23 10:16:00,51.2,46.2,29.89,SSE,161,0.0,2.0,83,0.00,,---,0.00,130.00,VWS V15.00,2017-05-23 15:16:00,
2017-05-23 10:21:00,51.1,46.1,29.89,SSE,161,0.0,3.0,83,0.00,,---,0.00,130.00,VWS V15.00,2017-05-23 15:21:00,
2017-05-23 10:26:00,51.1,46.1,29.89,SSE,161,1.0,3.0,83,0.00,,---,0.00,137.00,VWS V15.00,2017-05-23 15:26:00,
2017-05-23 10:31:00,51.2,46.2,29.89,SSE,161,0.0,3.0,83,0.00,,---,0.00,148.00,VWS V15.00,2017-05-23 15:31:00,
2017-05-23 10:36:00,51.4,46.4,29.88,SSE,161,2.0,4.0,83,0.00,,---,0.00,165.00,VWS V15.00,2017-05-23 15:36:00,
2017-05-23 10:41:00,51.5,46.2,29.88,SSE,161,0.0,4.0,82,0.00,,---,0.00,202.00,VWS V15.00,2017-05-23 15:41:00,
2017-05-23 10:46:00,51.7,46.4,29.88,SSE,161,0.0,4.0,82,0.00,,---,0.00,257.00,VWS V15.00,2017-05-23 15:46:00,
2017-05-23 10:51:00,51.9,46.6,29.89,SSE,161,2.0,4.0,82,0.00,,---,0.00,308.00,VWS V15.00,2017-05-23 15:51:00,
2017-05-23 10:56:00,52.4,46.8,29.89,SSE,161,0.0,4.0,81,0.00,,---,0.00,292.00,VWS V15.00,2017-05-23 15:56:00,
2017-05-23 11:01:00,52.5,46.8,29.89,SSE,161,2.0,5.0,81,0.00,,---,0.00,318.00,VWS V15.00,2017-05-23 16:01:00,
2017-05-23 11:06:00,52.6,46.3,29.89,SSE,161,0.0,3.0,79,0.00,,---,0.00,369.00,VWS V15.00,2017-05-23 16:06:00,
2017-05-23 11:11:00,53.1,46.4,29.89,SSE,155,0.0,6.0,78,0.00,,---,0.00,420.00,VWS V15.00,2017-05-23 16:11:00,
2017-05-23 11:16:00,53.7,46.3,29.89,SSE,155,2.0,6.0,76,0.00,,---,0.00,475.00,VWS V15.00,2017-05-23 16:16:00,
2017-05-23 11:21:00,53.7,46.7,29.88,SSE,155,0.0,6.0,77,0.00,,---,0.00,596.00,VWS V15.00,2017-05-23 16:21:00,
2017-05-23 11:26:00,53.5,46.1,29.88,SSE,155,0.0,6.0,76,0.00,,---,0.00,394.00,VWS V15.00,2017-05-23 16:26:00,
2017-05-23 11:31:00,53.9,47.9,29.88,SSE,155,0.0,6.0,80,0.00,,---,0.00,383.00,VWS V15.00,2017-05-23 16:31:00,
2017-05-23 11:36:00,54.3,46.6,29.88,SSE,155,0.0,4.0,75,0.00,,---,0.00,378.00,VWS V15.00,2017-05-23 16:36:00,
2017-05-23 11:41:00,54.6,46.5,29.88,SE,145,2.0,5.0,74,0.00,,---,0.00,1056.00,VWS V15.00,2017-05-23 16:41:00,
2017-05-23 11:42:00,54.6,46.5,29.88,SE,145,1.0,5.0,74,0.00,,---,0.00,1056.00,VWS V15.00,2017-05-23 16:42:00,
2017-05-23 11:47:00,54.7,46.9,29.87,SE,145,1.0,5.0,75,0.00,,---,0.00,969.00,VWS V15.00,2017-05-23 16:47:00,
2017-05-23 11:52:00,56.5,50.8,29.87,SE,142,0.0,5.0,81,0.00,,---,0.00,1132.00,VWS V15.00,2017-05-23 16:52:00,
2017-05-23 11:57:00,56.8,47.1,29.87,ENE,72,2.0,7.0,70,0.00,,---,0.00,1204.00,VWS V15.00,2017-05-23 16:57:00,
2017-05-23 12:02:00,56.3,49.2,29.87,ENE,72,1.0,7.0,77,0.00,,---,0.00,1246.00,VWS V15.00,2017-05-23 17:02:00,
2017-05-23 12:07:00,55.8,46.5,29.87,ENE,71,0.0,2.0,71,0.00,,---,0.00,197.00,VWS V15.00,2017-05-23 17:07:00,
2017-05-23 12:12:00,54.7,45.9,29.87,ENE,69,3.0,3.0,72,0.00,,---,0.00,95.00,VWS V15.00,2017-05-23 17:12:00,
2017-05-23 12:17:00,54.1,46.4,29.88,ENE,69,2.0,4.0,75,0.00,,---,0.00,69.00,VWS V15.00,2017-05-23 17:17:00,
2017-05-23 12:22:00,53.6,46.9,29.88,NNE,13,1.0,4.0,78,0.00,,---,0.00,62.00,VWS V15.00,2017-05-23 17:22:00,
2017-05-23 12:27:00,53.1,46.8,29.88,NNE,13,1.0,4.0,79,0.00,,---,0.00,70.00,VWS V15.00,2017-05-23 17:27:00,
2017-05-23 12:32:00,52.6,46.9,29.87,NNE,13,1.0,4.0,81,0.00,,---,0.00,76.00,VWS V15.00,2017-05-23 17:32:00,
2017-05-23 12:37:00,52.4,47.1,29.87,North,360,0.0,5.0,82,0.00,,---,0.00,90.00,VWS V15.00,2017-05-23 17:37:00,
2017-05-23 12:42:00,52.3,47.0,29.87,North,360,0.0,5.0,82,0.00,,---,0.00,105.00,VWS V15.00,2017-05-23 17:42:00,
2017-05-23 12:47:00,52.4,47.1,29.87,North,360,2.0,5.0,82,0.00,,---,0.00,134.00,VWS V15.00,2017-05-23 17:47:00,
2017-05-23 12:52:00,52.7,47.4,29.87,North,360,0.0,5.0,82,0.00,,---,0.00,171.00,VWS V15.00,2017-05-23 17:52:00,
2017-05-23 12:57:00,53.0,47.3,29.87,North,355,0.0,5.0,81,0.00,,---,0.00,186.00,VWS V15.00,2017-05-23 17:57:00,
2017-05-23 13:02:00,53.1,47.1,29.87,North,355,2.0,5.0,80,0.00,,---,0.00,174.00,VWS V15.00,2017-05-23 18:02:00,
2017-05-23 13:07:00,53.0,47.0,29.87,NNW,327,0.0,7.0,80,0.00,,---,0.00,218.00,VWS V15.00,2017-05-23 18:07:00,
2017-05-23 13:12:00,53.0,46.7,29.87,NNW,327,1.0,7.0,79,0.00,,---,0.00,197.00,VWS V15.00,2017-05-23 18:12:00,
2017-05-23 13:17:00,53.0,46.7,29.87,NNW,327,0.0,7.0,79,0.00,,---,0.00,171.00,VWS V15.00,2017-05-23 18:17:00,
2017-05-23 13:22:00,53.0,46.7,29.87,ENE,76,0.0,8.0,79,0.00,,---,0.00,206.00,VWS V15.00,2017-05-23 18:22:00,
2017-05-23 13:27:00,53.1,46.8,29.87,NE,43,4.0,8.0,79,0.00,,---,0.00,209.00,VWS V15.00,2017-05-23 18:27:00,
2017-05-23 13:32:00,53.2,47.2,29.87,NNE,27,0.0,8.0,80,0.00,,---,0.00,209.00,VWS V15.00,2017-05-23 18:32:00,
2017-05-23 13:33:00,53.2,47.2,29.87,NNE,27,1.0,8.0,80,0.00,,---,0.00,209.00,VWS V15.00,2017-05-23 18:33:00,
2017-05-23 13:38:00,53.3,47.0,29.87,NNE,26,3.0,3.0,79,0.00,,---,0.00,218.00,VWS V15.00,2017-05-23 18:38:00,
2017-05-23 13:42:00,53.3,47.0,29.87,ENE,68,1.0,7.0,79,0.00,,---,0.00,262.00,VWS V15.00,2017-05-23 18:42:00,
2017-05-23 13:47:00,53.9,47.5,29.86,ENE,67,0.0,7.0,79,0.00,,---,0.00,279.00,VWS V15.00,2017-05-23 18:47:00,
2017-05-23 13:52:00,54.1,47.1,29.86,North,355,0.0,7.0,77,0.00,,---,0.00,237.00,VWS V15.00,2017-05-23 18:52:00,
2017-05-23 13:57:00,54.1,46.4,29.86,North,355,2.0,7.0,75,0.00,,---,0.00,287.00,VWS V15.00,2017-05-23 18:57:00,
2017-05-23 13:58:00,54.1,46.4,29.86,North,355,2.0,7.0,75,0.00,,---,0.00,287.00,VWS V15.00,2017-05-23 18:58:00,
2017-05-23 14:03:00,54.1,46.0,29.86,NW,326,0.0,7.0,74,0.00,,---,0.00,338.00,VWS V15.00,2017-05-23 19:03:00,
2017-05-23 14:08:00,54.4,46.3,29.86,NNW,329,1.0,4.0,74,0.00,,---,0.00,345.00,VWS V15.00,2017-05-23 19:08:00,
2017-05-23 14:13:00,54.5,45.7,29.86,NNW,327,1.0,7.0,72,0.00,,---,0.00,323.00,VWS V15.00,2017-05-23 19:13:00,
2017-05-23 14:18:00,54.6,46.5,29.86,NW,316,3.0,7.0,74,0.00,,---,0.00,345.00,VWS V15.00,2017-05-23 19:18:00,
2017-05-23 14:23:00,54.8,46.3,29.86,NNW,331,3.0,7.0,73,0.00,,---,0.00,346.00,VWS V15.00,2017-05-23 19:23:00,
2017-05-23 14:28:00,54.9,46.4,29.86,NW,324,8.0,8.0,73,0.00,,---,0.00,343.00,VWS V15.00,2017-05-23 19:28:00,
2017-05-23 14:33:00,54.5,46.0,29.86,NNW,327,1.0,9.0,73,0.00,,---,0.00,313.00,VWS V15.00,2017-05-23 19:33:00,
2017-05-23 14:38:00,54.4,46.3,29.86,NW,323,5.0,8.0,74,0.00,,---,0.00,429.00,VWS V15.00,2017-05-23 19:38:00,
2017-05-23 14:43:00,54.4,45.9,29.86,NW,326,2.0,8.0,73,0.00,,---,0.00,396.00,VWS V15.00,2017-05-23 19:43:00,
2017-05-23 14:48:00,55.0,46.9,29.86,North,5,1.0,8.0,74,0.00,,---,0.00,415.00,VWS V15.00,2017-05-23 19:48:00,
2017-05-23 14:53:00,54.6,45.8,29.86,NNW,327,2.0,8.0,72,0.00,,---,0.00,369.00,VWS V15.00,2017-05-23 19:53:00,
2017-05-23 14:58:00,54.1,45.7,29.86,NNE,30,1.0,8.0,73,0.00,,---,0.00,381.00,VWS V15.00,2017-05-23 19:58:00,
2017-05-23 15:03:00,54.5,46.0,29.86,NW,321,4.0,8.0,73,0.00,,---,0.00,424.00,VWS V15.00,2017-05-23 20:03:00,
2017-05-23 15:08:00,54.3,45.8,29.86,NW,322,6.0,10.0,73,0.00,,---,0.00,371.00,VWS V15.00,2017-05-23 20:08:00,
2017-05-23 15:13:00,54.9,46.8,29.86,NNE,32,0.0,10.0,74,0.00,,---,0.00,1018.00,VWS V15.00,2017-05-23 20:13:00,
2017-05-23 15:14:00,55.4,47.6,29.86,NE,42,5.0,10.0,75,0.00,,---,0.00,1018.00,VWS V15.00,2017-05-23 20:14:00,
2017-05-23 15:19:00,55.4,46.2,29.86,North,351,3.0,10.0,71,0.00,,---,0.00,777.00,VWS V15.00,2017-05-23 20:19:00,
2017-05-23 15:24:00,55.0,46.2,29.86,NNW,331,2.0,10.0,72,0.00,,---,0.00,786.00,VWS V15.00,2017-05-23 20:24:00,
2017-05-23 15:29:00,54.8,46.3,29.86,NNW,338,1.0,10.0,73,0.00,,---,0.00,355.00,VWS V15.00,2017-05-23 20:29:00,
2017-05-23 15:34:00,54.6,47.2,29.86,NW,321,0.0,5.0,76,0.00,,---,0.00,550.00,VWS V15.00,2017-05-23 20:34:00,
2017-05-23 15:39:00,54.2,46.5,29.86,NNW,346,1.0,10.0,75,0.00,,---,0.00,352.00,VWS V15.00,2017-05-23 20:39:00,
2017-05-23 15:44:00,54.0,46.6,29.86,NW,319,4.0,10.0,76,0.00,,---,0.00,374.00,VWS V15.00,2017-05-23 20:44:00,
2017-05-23 15:49:00,53.8,45.7,29.86,NNE,28,2.0,10.0,74,0.00,,---,0.00,323.00,VWS V15.00,2017-05-23 20:49:00,
2017-05-23 15:54:00,53.7,46.3,29.86,NW,321,2.0,10.0,76,0.00,,---,0.00,364.00,VWS V15.00,2017-05-23 20:54:00,
2017-05-23 15:59:00,53.7,46.0,29.86,NW,324,1.0,10.0,75,0.00,,---,0.00,371.00,VWS V15.00,2017-05-23 20:59:00,
2017-05-23 16:04:00,53.3,45.6,29.86,North,350,1.0,3.0,75,0.00,,---,0.00,265.00,VWS V15.00,2017-05-23 21:04:00,
2017-05-23 16:09:00,52.8,45.8,29.86,NNW,344,3.0,6.0,77,0.00,,---,0.00,294.00,VWS V15.00,2017-05-23 21:09:00,
2017-05-23 16:14:00,53.0,46.0,29.86,NW,324,6.0,10.0,77,0.00,,---,0.00,350.00,VWS V15.00,2017-05-23 21:14:00,
2017-05-23 16:19:00,53.1,46.8,29.86,NW,323,2.0,10.0,79,0.00,,---,0.00,369.00,VWS V15.00,2017-05-23 21:19:00,
2017-05-23 16:24:00,53.8,46.4,29.86,NW,315,4.0,11.0,76,0.00,,---,0.00,336.00,VWS V15.00,2017-05-23 21:24:00,
2017-05-23 16:25:00,53.8,46.4,29.86,NW,317,5.0,11.0,76,0.00,,---,0.00,332.00,VWS V15.00,2017-05-23 21:25:00,
2017-05-23 16:30:00,53.5,46.5,29.86,WNW,299,0.0,11.0,77,0.00,,---,0.00,202.00,VWS V15.00,2017-05-23 21:30:00,
2017-05-23 16:31:00,53.5,46.8,29.86,WNW,299,0.0,11.0,78,0.00,,---,0.00,192.00,VWS V15.00,2017-05-23 21:31:00,
2017-05-23 16:36:00,53.2,46.9,29.86,NW,306,0.0,3.0,79,0.00,,---,0.00,241.00,VWS V15.00,2017-05-23 21:36:00,
2017-05-23 16:41:00,53.3,46.6,29.86,NW,316,1.0,7.0,78,0.00,,---,0.00,221.00,VWS V15.00,2017-05-23 21:41:00,
2017-05-23 16:46:00,53.5,46.1,29.86,NW,323,3.0,7.0,76,0.00,,---,0.00,158.00,VWS V15.00,2017-05-23 21:46:00,
2017-05-23 16:51:00,53.3,45.9,29.86,NW,324,2.0,8.0,76,0.00,,---,0.00,146.00,VWS V15.00,2017-05-23 21:51:00,
2017-05-23 16:56:00,53.2,46.2,29.86,NW,323,1.0,8.0,77,0.00,,---,0.00,114.00,VWS V15.00,2017-05-23 21:56:00,
2017-05-23 17:01:00,53.0,46.0,29.86,NW,319,2.0,8.0,77,0.00,,---,0.00,88.00,VWS V15.00,2017-05-23 22:01:00,
2017-05-23 17:06:00,52.7,45.7,29.87,NW,324,1.0,4.0,77,0.00,,---,0.00,79.00,VWS V15.00,2017-05-23 22:06:00,
2017-05-23 17:11:00,52.5,45.8,29.87,NW,324,2.0,4.0,78,0.00,,---,0.00,81.00,VWS V15.00,2017-05-23 22:11:00,
2017-05-23 17:16:00,52.2,45.9,29.87,NW,325,0.0,5.0,79,0.00,,---,0.00,76.00,VWS V15.00,2017-05-23 22:16:00,
2017-05-23 17:21:00,51.9,45.9,29.86,NW,325,0.0,5.0,80,0.00,,---,0.00,91.00,VWS V15.00,2017-05-23 22:21:00,
2017-05-23 17:26:00,51.7,46.1,29.86,NW,325,2.0,5.0,81,0.00,,---,0.00,100.00,VWS V15.00,2017-05-23 22:26:00,
2017-05-23 17:31:00,51.5,46.2,29.86,NW,325,1.0,5.0,82,0.00,,---,0.00,116.00,VWS V15.00,2017-05-23 22:31:00,
2017-05-23 17:36:00,51.5,46.2,29.86,NW,325,0.0,2.0,82,0.00,,---,0.00,113.00,VWS V15.00,2017-05-23 22:36:00,
2017-05-23 17:41:00,51.7,46.4,29.86,NW,325,0.0,2.0,82,0.00,,---,0.00,114.00,VWS V15.00,2017-05-23 22:41:00,
2017-05-23 17:46:00,51.8,46.5,29.86,NW,325,2.0,4.0,82,0.00,,---,0.00,118.00,VWS V15.00,2017-05-23 22:46:00,
2017-05-23 17:51:00,51.7,46.4,29.86,NW,325,2.0,5.0,82,0.00,,---,0.00,116.00,VWS V15.00,2017-05-23 22:51:00,
2017-05-23 17:56:00,51.5,46.2,29.86,NW,325,1.0,5.0,82,0.00,,---,0.00,113.00,VWS V15.00,2017-05-23 22:56:00,
2017-05-23 18:01:00,51.4,46.1,29.86,NW,325,0.0,5.0,82,0.00,,---,0.00,104.00,VWS V15.00,2017-05-23 23:01:00,
2017-05-23 18:06:00,51.3,46.3,29.87,NW,325,1.0,2.0,83,0.00,,---,0.00,95.00,VWS V15.00,2017-05-23 23:06:00,
2017-05-23 18:11:00,51.2,46.2,29.87,NW,325,0.0,3.0,83,0.00,,---,0.00,98.00,VWS V15.00,2017-05-23 23:11:00,
2017-05-23 18:16:00,51.3,46.3,29.87,NW,325,1.0,3.0,83,0.00,,---,0.00,113.00,VWS V15.00,2017-05-23 23:16:00,
2017-05-23 18:21:00,51.4,46.1,29.88,NW,325,1.0,5.0,82,0.00,,---,0.00,109.00,VWS V15.00,2017-05-23 23:21:00,
2017-05-23 18:26:00,51.4,46.1,29.88,NNW,327,0.0,5.0,82,0.00,,---,0.00,98.00,VWS V15.00,2017-05-23 23:26:00,